Flag for Kuwait Weather past 2 weeks in Kuwait City, Kuwait

Now
109 °F

Sunny.


Feels Like: 116 °F
Forecast: 97 / 115 °F
Wind: 8 mph from Southeast

Location: Kuwait International Airport

Current Time: Aug 20, 2014 at 1:50:38 PM

Latest Report: Aug 20, 2014 at 1:00 PM


Visibility: 4 mi

Pressure: 29.65 "Hg

Humidity: 25%

Dew point: 66 °F

Location of Kuwait CityLocation

Historic Weather in Kuwait City — Graph

°F

Kuwait City temperature yesterday

Maximum temperature yesterday: 106 °F (at 11:00 AM)
Minimum temperature yesterday: 88 °F (at 3:00 AM)
Average temperature yesterday: 95 °F

Past Weeks' High & Low Weather Summary

 TemperatureHumidityPressure
High122 °F (Aug 15, 3:30 PM)89% (Aug 18, 6:00 AM)29.74 "Hg (Aug 18, 6:00 AM)
Low82 °F (Aug 6, 5:00 AM)6% (Aug 15, 2:00 PM)29.27 "Hg (Aug 8, 8:00 PM)
Average103 °F23%29.52 "Hg
* Reported Aug 5 12:00 Noon — Aug 20 12:00 Noon, Kuwait City, Weather by CustomWeather, © 2014

Note: Actual official high and low records may vary slightly from our data, if they occured in-between our weather recording intervals... More about our weather records

Advertising

Kuwait City weather history for previous 24 hours

 ConditionsComfort  
Time TempWeatherWind HumidityBarometerVisibility
12:00 PM
Aug 20
108 °FSunny.10 mph34%29.68 "Hg4 mi
11:00 AM113 °FSunny.7 mph14%29.71 "Hg4 mi
10:00 AM109 °FSunny.5 mph18%29.71 "Hg3 mi
9:00 AM104 °FSunny.6 mph29%29.71 "Hg3 mi
8:00 AM99 °FSunny.6 mph35%29.71 "Hg3 mi
7:00 AM93 °FSunny.3 mph53%29.71 "Hg2 mi
6:00 AM88 °FSunny.No wind70%29.71 "Hg2 mi
5:00 AM86 °FClear.6 mph79%29.71 "Hg4 mi
4:00 AM86 °FClear.6 mph89%29.71 "Hg4 mi
3:00 AM88 °FClear.5 mph89%29.71 "Hg4 mi
2:00 AM88 °FClear.7 mph89%29.71 "Hg4 mi
1:00 AM88 °FClear.6 mph84%29.71 "Hg4 mi
12:00 AM90 °FClear.5 mph79%29.74 "Hg4 mi
11:00 PM
Aug 19
91 °FClear.10 mph80%29.74 "Hg4 mi
10:00 PM91 °FClear.9 mph71%29.74 "Hg4 mi
9:00 PM93 °FHaze.8 mph71%29.71 "Hg3 mi
8:00 PM93 °FClear.7 mph67%29.71 "Hg3 mi
7:00 PM95 °FClear.7 mph63%29.68 "Hg2 mi
6:00 PM99 °FSunny.7 mph57%29.65 "Hg2 mi
5:00 PM100 °FSunny.8 mph50%29.65 "Hg2 mi
4:00 PM102 °FSunny.10 mph51%29.65 "Hg2 mi
3:00 PM102 °FSunny.9 mph51%29.68 "Hg2 mi
2:00 PM100 °FSunny.10 mph57%29.68 "Hg2 mi
1:00 PM102 °FSunny.10 mph54%29.68 "Hg2 mi
Weather by CustomWeather, © 2014

See weather overviewHow to use our weather pages